Location: ???????
(54.9996°N, 37.9529°E)
Time: 04:32:20
(UTC+00:00)

IDEFIX/ARIANE 42P - Pass Details

Date: 14 April 2024
Orbit: 783 x 799 km, 98.5° (Epoch: 23 May)

Event Time Altitude Azimuth Distance (km) Brightness Sun altitude
Rises 00:15:58 0° 13° (NNE) 3,289 6.8 -16.6°
Reaches altitude 10° 00:18:21 10° 8° (N) 2,357 5.8 -16.4°
Maximum altitude 00:23:19 48° 296° (WNW) 1,028 3.0 -15.9°
Enters shadow 00:26:05 25° 234° (SW) 1,566 3.5 -15.6°
